Date String (YYYY-MM-DD hh:mm:ss) UTC,Instrument flags,Ambient pressure (hPa),Sample flow (lpm),Bypass flow (lpm),Sample temperature (°C),Ambient temperature (°C),ASC tube jacket temperature (°C),LED temperature (°C),Box temperature (°C),Sample RH (%),Span deviation,Mass concentration (μg/m³),Mass concentration (μg/m³),Mass concentration (μg/m³)
DateTimeUTC,F1_M11,P_M11,Q1_M11,Q2_M11,T1_M11,T2_M11,T3_M11,T4_M11,T5_M11,U1_M11,ZSPAN_M11,X2_M11,X0_M11,X1_M11
2022-04-13 01:00:00,,0810.8,5.00,0.00,22.3,22.4,00.0,31.3,24.2,07.0,0000.0,0003.48,0015.12,0000.73
2022-04-13 01:01:00,,0810.7,4.99,0.00,22.5,23.2,00.0,31.3,24.5,06.9,0000.0,0003.53,0015.19,0000.73
2022-04-13 01:02:00,,0810.6,5.00,0.00,22.6,23.3,00.0,31.4,24.6,06.9,0000.0,0003.53,0014.38,0000.73
2022-04-13 01:03:00,,0810.4,5.01,0.00,22.6,22.9,00.0,31.4,24.4,06.8,0000.0,0003.48,0014.28,0000.72
2022-04-13 01:04:00,,0810.3,5.00,0.00,22.5,22.4,00.0,31.4,24.3,06.6,0000.0,0003.41,0013.16,0000.71
2022-04-13 01:05:00,,0810.4,5.00,0.00,22.5,22.0,00.0,31.3,24.2,06.7,0000.0,0003.32,0013.36,0000.71
2022-04-13 01:06:00,,0810.4,5.00,0.00,22.4,21.7,00.0,31.3,24.1,06.8,0000.0,0003.29,0014.14,0000.71
2022-04-13 01:07:00,,0810.4,5.01,0.00,22.4,21.4,00.0,31.3,24.0,06.8,0000.0,0003.31,0014.14,0000.70
2022-04-13 01:08:00,,0810.1,5.00,0.00,22.3,21.1,00.0,31.3,23.9,06.8,0000.0,0003.29,0013.65,0000.70
2022-04-13 01:09:00,,0810.3,5.02,0.00,22.3,20.9,00.0,31.3,23.8,06.9,0000.0,0003.30,0013.29,0000.71
2022-04-13 01:10:00,,0810.3,4.98,0.00,22.2,20.8,00.0,31.2,23.7,06.8,0000.0,0003.34,0013.69,0000.74
2022-04-13 01:11:00,,0810.3,5.00,0.00,22.1,20.7,00.0,31.2,23.7,06.7,0000.0,0003.37,0014.12,0000.74
2022-04-13 01:12:00,,0810.5,5.01,0.00,22.1,21.0,00.0,31.2,23.7,06.8,0000.0,0003.38,0014.04,0000.74
2022-04-13 01:13:00,,0810.5,5.00,0.00,22.2,21.9,00.0,31.2,24.0,06.7,0000.0,0003.42,0014.63,0000.76
2022-04-13 01:14:00,,0810.6,5.01,0.00,22.3,22.7,00.0,31.3,24.3,06.6,0000.0,0003.45,0014.46,0000.76
2022-04-13 01:15:00,,0810.7,5.00,0.00,22.5,23.2,00.0,31.3,24.5,06.7,0000.0,0003.53,0015.45,0000.77
2022-04-13 01:16:00,,0810.7,4.99,0.00,22.5,22.9,00.0,31.3,24.4,06.7,0000.0,0003.65,0016.22,0000.80
2022-04-13 01:17:00,,0810.5,5.01,0.00,22.5,22.4,00.0,31.3,24.3,06.6,0000.0,0003.77,0016.24,0000.83
2022-04-13 01:18:00,,0810.4,5.00,0.00,22.4,22.0,00.0,31.3,24.1,06.6,0000.0,0003.89,0017.07,0000.86
2022-04-13 01:19:00,,0810.3,5.01,0.00,22.4,21.7,00.0,31.3,24.0,06.7,0000.0,0004.01,0018.18,0000.88
2022-04-13 01:20:00,,0810.5,4.99,0.00,22.3,21.4,00.0,31.3,23.9,06.7,0000.0,0004.37,0021.84,0000.92
2022-04-13 01:21:00,,0810.8,5.02,0.00,22.3,21.2,00.0,31.2,23.9,06.7,0000.0,0004.50,0024.56,0000.95
2022-04-13 01:22:00,,0810.8,4.99,0.00,22.2,21.0,00.0,31.2,23.8,06.8,0000.0,0004.49,0024.92,0000.95
2022-04-13 01:23:00,,0810.8,4.99,0.00,22.2,20.8,00.0,31.2,23.7,06.8,0000.0,0004.44,0024.64,0000.94
2022-04-13 01:24:00,,0810.9,5.01,0.00,22.1,20.7,00.0,31.1,23.6,06.9,0000.0,0004.33,0023.77,0000.91
2022-04-13 01:25:00,,0810.8,4.99,0.00,22.1,21.1,00.0,31.2,23.7,06.9,0000.0,0004.20,0023.19,0000.88
2022-04-13 01:26:00,,0810.9,5.00,0.00,22.2,22.0,00.0,31.2,24.0,06.8,0000.0,0004.10,0022.54,0000.87
2022-04-13 01:27:00,,0810.8,5.00,0.00,22.3,22.9,00.0,31.3,24.3,06.8,0000.0,0003.93,0020.46,0000.84
2022-04-13 01:28:00,,0810.8,5.00,0.00,22.5,23.2,00.0,31.3,24.5,06.8,0000.0,0003.83,0020.12,0000.81
2022-04-13 01:29:00,,0810.6,5.00,0.00,22.5,22.8,00.0,31.3,24.4,07.0,0000.0,0003.75,0020.52,0000.80
2022-04-13 01:30:00,,0810.3,5.00,0.00,22.4,22.3,00.0,31.3,24.2,07.0,0000.0,0003.60,0019.68,0000.77
2022-04-13 01:31:00,,0810.0,5.01,0.00,22.4,21.9,00.0,31.3,24.0,06.9,0000.0,0003.24,0016.64,0000.72
2022-04-13 01:32:00,,0810.3,4.99,0.00,22.3,21.4,00.0,31.2,23.9,06.9,0000.0,0002.99,0013.80,0000.67
2022-04-13 01:33:00,,0810.2,5.01,0.00,22.2,21.1,00.0,31.2,23.8,06.9,0000.0,0003.05,0014.64,0000.65
2022-04-13 01:34:00,,0810.1,5.01,0.00,22.2,20.8,00.0,31.2,23.6,06.8,0000.0,0003.26,0016.74,0000.68
2022-04-13 01:35:00,,0810.2,5.01,0.00,22.1,20.6,00.0,31.1,23.6,06.8,0000.0,0003.43,0018.25,0000.72
2022-04-13 01:36:00,,0810.1,4.99,0.00,22.1,20.9,00.0,31.1,23.6,06.7,0000.0,0003.64,0020.72,0000.76
2022-04-13 01:37:00,,0810.2,5.00,0.00,22.1,21.8,00.0,31.2,23.9,06.6,0000.0,0003.92,0022.85,0000.80
2022-04-13 01:38:00,,0810.3,5.00,0.00,22.3,22.7,00.0,31.2,24.2,06.5,0000.0,0004.09,0024.37,0000.84
2022-04-13 01:39:00,,0810.2,5.02,0.00,22.4,23.4,00.0,31.3,24.4,06.5,0000.0,0004.14,0025.37,0000.84
2022-04-13 01:40:00,,0810.5,4.98,0.00,22.5,23.2,00.0,31.3,24.5,06.5,0000.0,0004.17,0024.77,0000.85
2022-04-13 01:41:00,,0810.5,5.01,0.00,22.5,22.8,00.0,31.3,24.3,06.5,0000.0,0004.40,0025.75,0000.90
2022-04-13 01:42:00,,0810.3,5.00,0.00,22.4,22.3,00.0,31.3,24.2,06.5,0000.0,0004.54,0026.32,0000.92
2022-04-13 01:43:00,,0810.3,5.00,0.00,22.4,21.8,00.0,31.3,24.0,06.4,0000.0,0004.62,0027.59,0000.94
2022-04-13 01:44:00,,0810.2,5.01,0.00,22.3,21.4,00.0,31.2,23.9,06.4,0000.0,0004.65,0027.03,0000.95
2022-04-13 01:45:00,,0810.1,5.00,0.00,22.2,21.1,00.0,31.2,23.8,06.5,0000.0,0004.55,0025.65,0000.95
2022-04-13 01:46:00,,0810.3,4.99,0.00,22.2,20.8,00.0,31.2,23.6,06.5,0000.0,0004.45,0026.44,0000.94
2022-04-13 01:47:00,,0810.1,5.02,0.00,22.1,20.6,00.0,31.1,23.5,06.5,0000.0,0004.40,0031.68,0000.92
2022-04-13 01:48:00,,0810.2,5.00,0.00,22.1,21.1,00.0,31.2,23.6,06.5,0000.0,0004.28,0031.18,0000.91
2022-04-13 01:49:00,,0810.1,5.00,0.00,22.2,22.1,00.0,31.2,23.9,06.4,0000.0,0004.32,0034.33,0000.89
2022-04-13 01:50:00,,0810.3,5.00,0.00,22.3,22.9,00.0,31.3,24.2,06.4,0000.0,0004.35,0034.44,0000.90
2022-04-13 01:51:00,,0810.3,5.00,0.00,22.5,23.4,00.0,31.3,24.5,06.4,0000.0,0004.46,0035.63,0000.91
2022-04-13 01:52:00,,0810.2,4.98,0.00,22.5,23.1,00.0,31.3,24.4,06.4,0000.0,0004.27,0035.10,0000.89
2022-04-13 01:53:00,,0810.2,4.99,0.00,22.5,22.5,00.0,31.3,24.2,06.3,0000.0,0004.17,0034.40,0000.89
2022-04-13 01:54:00,,0810.1,5.01,0.00,22.4,22.0,00.0,31.3,24.0,06.2,0000.0,0004.24,0033.94,0000.88
2022-04-13 01:55:00,,0810.2,5.00,0.00,22.3,21.4,00.0,31.2,23.8,06.2,0000.0,0004.26,0033.95,0000.86
2022-04-13 01:56:00,,0810.3,5.00,0.00,22.2,21.0,00.0,31.2,23.6,06.2,0000.0,0004.25,0034.77,0000.85
2022-04-13 01:57:00,,0810.3,5.01,0.00,22.1,20.8,00.0,31.2,23.5,06.2,0000.0,0004.27,0034.19,0000.86
2022-04-13 01:58:00,,0810.5,4.99,0.00,22.1,21.1,00.0,31.2,23.6,06.2,0000.0,0004.34,0028.47,0000.86
2022-04-13 01:59:00,,0810.6,5.00,0.00,22.2,22.0,00.0,31.2,23.9,06.2,0000.0,0004.30,0027.93,0000.86
